When you browse on this site, cookies collect data to enhance your experience and personalize the content and advertising you see.
Visit our Privacy Policy to learn more. By continuing to use the site, you agree to this use of cookies and data.

Hourly Weather Mingachevir

Today, 12 August, Wednesday

Time Temperature Precipitation Wind Pressure Humidity
00:00 +26°C° 0 mm 3 mps 749 mmHg 50%
01:00 +25°C° 0 mm 3 mps 749 mmHg 53%
02:00 +25°C° 0 mm 2 mps 749 mmHg 55%
03:00 +24°C° 0 mm 2 mps 749 mmHg 58%
04:00 +24°C° 0 mm 2 mps 749 mmHg 58%
05:00 +25°C° 0 mm 1 mps 749 mmHg 58%
06:00 +25°C° 0 mm 1 mps 750 mmHg 57%
07:00 +27°C° 0 mm 2 mps 750 mmHg 52%
08:00 +29°C° 0 mm 2 mps 749 mmHg 47%
09:00 +31°C° 0 mm 2 mps 749 mmHg 42%
10:00 +32°C° 0 mm 2 mps 749 mmHg 39%
11:00 +34°C° 0 mm 2 mps 749 mmHg 36%
12:00 +35°C° 0 mm 2 mps 749 mmHg 33%
13:00 +36°C° 0 mm 2 mps 749 mmHg 32%
14:00 +36°C° 0 mm 2 mps 748 mmHg 31%
15:00 +37°C° 0 mm 2 mps 748 mmHg 30%
16:00 +36°C° 0 mm 3 mps 748 mmHg 30%
17:00 +36°C° 0 mm 3 mps 748 mmHg 30%
18:00 +36°C° 0 mm 3 mps 748 mmHg 30%
19:00 +34°C° 0 mm 4 mps 749 mmHg 34%
20:00 +32°C° 0 mm 5 mps 749 mmHg 38%
21:00 +29°C° 0 mm 6 mps 750 mmHg 42%
22:00 +28°C° 0 mm 6 mps 750 mmHg 45%
23:00 +27°C° 0 mm 5 mps 750 mmHg 48%

Tomorrow, 13 August, Thursday

Time Temperature Precipitation Wind Pressure Humidity
00:00 +26°C° 0 mm 4 mps 750 mmHg 51%
01:00 +25°C° 0 mm 3 mps 750 mmHg 53%
02:00 +25°C° 0 mm 3 mps 749 mmHg 55%
03:00 +24°C° 0 mm 2 mps 749 mmHg 57%
04:00 +24°C° 0 mm 1 mps 749 mmHg 56%
05:00 +25°C° 0 mm 1 mps 749 mmHg 56%
06:00 +25°C° 0 mm 1 mps 749 mmHg 56%
07:00 +27°C° 0 mm 1 mps 749 mmHg 50%
08:00 +29°C° 0 mm 2 mps 749 mmHg 44%
09:00 +30°C° 0 mm 2 mps 749 mmHg 39%
10:00 +31°C° 0 mm 2 mps 748 mmHg 36%
11:00 +34°C° 0 mm 2 mps 748 mmHg 34%
12:00 +35°C° 0 mm 2 mps 747 mmHg 31%
13:00 +36°C° 0 mm 2 mps 747 mmHg 30%
14:00 +36°C° 0 mm 2 mps 746 mmHg 29%
15:00 +37°C° 0 mm 2 mps 746 mmHg 27%
16:00 +37°C° 0 mm 2 mps 746 mmHg 29%
17:00 +36°C° 0 mm 2 mps 746 mmHg 30%
18:00 +35°C° 0 mm 1 mps 746 mmHg 31%
19:00 +34°C° 0 mm 2 mps 747 mmHg 34%
20:00 +32°C° 0 mm 2 mps 747 mmHg 36%
21:00 +30°C° 0 mm 3 mps 748 mmHg 38%
22:00 +29°C° 0 mm 3 mps 748 mmHg 40%
23:00 +28°C° 0 mm 2 mps 748 mmHg 42%

Day after tomorrow, 14 August, Friday

Time Temperature Precipitation Wind Pressure Humidity
00:00 +27°C° 0 mm 1 mps 748 mmHg 44%
01:00 +27°C° 0 mm 2 mps 748 mmHg 50%
02:00 +26°C° 0 mm 3 mps 748 mmHg 55%
03:00 +25°C° 0 mm 4 mps 748 mmHg 61%
04:00 +26°C° 0 mm 4 mps 748 mmHg 60%
05:00 +26°C° 0 mm 4 mps 748 mmHg 59%
06:00 +26°C° 0 mm 4 mps 748 mmHg 59%
07:00 +27°C° 0 mm 5 mps 748 mmHg 55%
08:00 +29°C° 0 mm 5 mps 748 mmHg 51%
09:00 +30°C° 0 mm 6 mps 748 mmHg 47%
10:00 +32°C° 0 mm 5 mps 747 mmHg 44%
11:00 +33°C° 0 mm 5 mps 747 mmHg 40%
12:00 +35°C° 0 mm 4 mps 747 mmHg 37%
13:00 +35°C° 0 mm 4 mps 746 mmHg 35%
14:00 +35°C° 0 mm 3 mps 746 mmHg 34%
15:00 +36°C° 0 mm 3 mps 745 mmHg 33%
16:00 +35°C° 0.2 mm 3 mps 746 mmHg 37%
17:00 +33°C° 0.2 mm 4 mps 746 mmHg 41%
18:00 +32°C° 0.2 mm 4 mps 746 mmHg 45%
19:00 +30°C° 0.2 mm 4 mps 746 mmHg 47%
20:00 +29°C° 0.2 mm 5 mps 747 mmHg 49%
21:00 +29°C° 0.2 mm 5 mps 747 mmHg 51%
22:00 +28°C° 0 mm 4 mps 748 mmHg 52%
23:00 +27°C° 0 mm 4 mps 748 mmHg 53%

15 August, Saturday

Time Temperature Precipitation Wind Pressure Humidity
00:00 +27°C° 0 mm 3 mps 748 mmHg 54%
01:00 +26°C° 0 mm 2 mps 748 mmHg 54%
02:00 +26°C° 0 mm 1 mps 748 mmHg 55%
03:00 +26°C° 0 mm 1 mps 748 mmHg 55%
04:00 +26°C° 0 mm 1 mps 748 mmHg 54%
05:00 +26°C° 0 mm 1 mps 748 mmHg 54%
06:00 +26°C° 0 mm 1 mps 748 mmHg 53%
07:00 +26°C° 0 mm 2 mps 748 mmHg 51%
08:00 +27°C° 0 mm 3 mps 748 mmHg 50%
09:00 +27°C° 0 mm 4 mps 748 mmHg 48%
10:00 +29°C° 0 mm 4 mps 748 mmHg 44%
11:00 +30°C° 0 mm 3 mps 748 mmHg 41%
12:00 +33°C° 0 mm 3 mps 748 mmHg 37%
13:00 +32°C° 0 mm 2 mps 748 mmHg 36%
14:00 +32°C° 0 mm 2 mps 748 mmHg 36%
15:00 +34°C° 0 mm 2 mps 747 mmHg 36%
16:00 +32°C° 0 mm 2 mps 748 mmHg 37%
17:00 +32°C° 0 mm 2 mps 748 mmHg 38%
18:00 +31°C° 0 mm 2 mps 748 mmHg 40%
19:00 +30°C° 0 mm 4 mps 748 mmHg 44%
20:00 +28°C° 0 mm 5 mps 749 mmHg 49%
21:00 +27°C° 0 mm 7 mps 749 mmHg 53%
22:00 +26°C° 0 mm 7 mps 749 mmHg 56%
23:00 +24°C° 0 mm 7 mps 749 mmHg 58%

16 August, Sunday

Time Temperature Precipitation Wind Pressure Humidity
00:00 +24°C° 0 mm 7 mps 749 mmHg 60%
01:00 +23°C° 0 mm 6 mps 749 mmHg 61%
02:00 +23°C° 0 mm 6 mps 749 mmHg 62%
03:00 +23°C° 0 mm 6 mps 750 mmHg 63%
04:00 +23°C° 0 mm 5 mps 750 mmHg 64%
05:00 +23°C° 0 mm 5 mps 749 mmHg 66%
06:00 +23°C° 0 mm 4 mps 749 mmHg 67%
07:00 +25°C° 0 mm 5 mps 750 mmHg 62%
08:00 +26°C° 0 mm 5 mps 750 mmHg 57%
09:00 +27°C° 0 mm 5 mps 750 mmHg 51%
10:00 +28°C° 0 mm 6 mps 749 mmHg 49%
11:00 +29°C° 0 mm 6 mps 749 mmHg 47%
12:00 +29°C° 0 mm 6 mps 749 mmHg 45%
13:00 +30°C° 0 mm 6 mps 748 mmHg 43%
14:00 +30°C° 0 mm 5 mps 748 mmHg 42%
15:00 +32°C° 0 mm 4 mps 748 mmHg 40%
16:00 +30°C° 0 mm 4 mps 748 mmHg 41%
17:00 +30°C° 0 mm 3 mps 747 mmHg 41%
18:00 +30°C° 0 mm 3 mps 747 mmHg 42%
19:00 +29°C° 0 mm 4 mps 748 mmHg 43%
20:00 +29°C° 0 mm 4 mps 748 mmHg 44%
21:00 +28°C° 0 mm 5 mps 748 mmHg 44%
22:00 +27°C° 0.1 mm 5 mps 748 mmHg 49%
23:00 +26°C° 0.1 mm 4 mps 748 mmHg 55%

17 August, Monday

Time Temperature Precipitation Wind Pressure Humidity
00:00 +24°C° 0.1 mm 3 mps 748 mmHg 60%
01:00 +24°C° 0.1 mm 3 mps 748 mmHg 63%
02:00 +22°C° 0.1 mm 3 mps 748 mmHg 65%
03:00 +22°C° 0.1 mm 3 mps 747 mmHg 68%
04:00 +23°C° 0.1 mm 2 mps 748 mmHg 69%
05:00 +21°C° 0.1 mm 2 mps 748 mmHg 70%
06:00 +21°C° 0.1 mm 2 mps 748 mmHg 71%
07:00 +24°C° 0.1 mm 3 mps 748 mmHg 64%
08:00 +26°C° 0.1 mm 4 mps 748 mmHg 58%
09:00 +27°C° 0.1 mm 5 mps 748 mmHg 51%
10:00 +28°C° 0 mm 5 mps 748 mmHg 47%
11:00 +29°C° 0 mm 5 mps 747 mmHg 44%
12:00 +30°C° 0 mm 5 mps 747 mmHg 40%
13:00 +30°C° 0 mm 4 mps 747 mmHg 42%
14:00 +29°C° 0 mm 4 mps 747 mmHg 44%
15:00 +28°C° 0 mm 3 mps 747 mmHg 46%
16:00 +27°C° 0 mm 3 mps 747 mmHg 51%
17:00 +26°C° 0 mm 4 mps 747 mmHg 56%
18:00 +25°C° 0 mm 4 mps 748 mmHg 61%
19:00 +23°C° 0.2 mm 4 mps 748 mmHg 64%
20:00 +24°C° 0.2 mm 3 mps 749 mmHg 66%
21:00 +22°C° 0.2 mm 3 mps 749 mmHg 69%
22:00 +21°C° 0.6 mm 3 mps 749 mmHg 73%
23:00 +21°C° 0.6 mm 4 mps 749 mmHg 77%
Show more